Погода в Тобольске

Погода в Тобольске : погода сейчас, прогноз погоды и архив. Всё, что Вы хотите узнать о погоде в Тобольске!

Хотите узнать прогноз погоды в Тобольске? Тогда Вам сюда: Погода в Тобольске

Поиск расширенной информации на нашем сайте:

Полезная информация:

Другие новости

Новости СМИ2

Главная страница сайта

Новости сайта

03.07.2017

Напоминаем, что на нашем специализированном сайте Метеоцентр.Азия вы можете получить высокодетализированные автоматические прогнозы погоды по пунктам России, СНГ и мира в авиационном формате (включающие направление и скорость ветра, видимость, явления погоды, количество и форму облачности, нижнюю и верхнюю границу облачности).

Рекомендуем:

Погода в Тобольске - сегодня

Время (UTC), дата Ветер
(°,м/с) 
Видим.   Явления Облачность Т
(°С)
Тd
(°С)
f(%) Тe
(°С)
Pmin
(гПа)
dP
(гПа)
Po
(мм)
O2
(г/м3)
Тmin Tmax R s Состояние
почвы
09 15.09.19 220 (ЮЗ) 20000 м    6/0 верхняя 
[Ci fib]
+23.3 +9.1 40 +23  1010.6  -0.9  754  278           
12 15.09.19 200 (Ю) 20000 м    3/1 600 м верхняя 
[Cu hum|Ci fib]
+22.7 +7.9 39 +23  1009.5  -1.2  753  279           
15 15.09.19 170 (Ю) 10 км    ясно 
+15.8 +8.2 61 +17  1009  -0.6  752  285    +23.9       
18 15.09.19 190 (Ю) 10 км    3/3 600 м 
[Sc]
+17.3 +6.7 50 +18  1007.8  -1.2  752  284           
21 15.09.19 060 (СВ) 10 км    ясно 
+12.3 +6.5 68 +14  1007.3  -0.6  751  289           
00 16.09.19 110 (В) 10 км    4/4 600 м 
[Sc]
+8.1 +6.1 87 +9  1007.2  -0.1  751  293           
03 16.09.19 110 (В) 20000 м    8/4 600 м средняя 
[Sc|Ac trans]
+11.1 +8.6 85 +12  1006.9  -0.3  751  289  +8.1         
06 16.09.19 240 (ЮЗ) 20000 м    8/3 1000 м средняя 
[Sc|Ac cuf]
+17.2 +8.5 57 +18  1006.1  -0.6  750  283           
09 16.09.19 180 (Ю) 20000 м    9/3 600 м кучево-дожд., средняя, верхняя 
[Cb calv|Ac cuf|Ci sp]
+20.1 +8.8 48 +20  1004  -2.1  749  279           
12 16.09.19 310 (СЗ) 20000 м    10/6 600 м кучево-дожд., верхняя 
[Cb cap|Ci sp]
+17.6 +11.3 67 +22  1002.9  -1.2  748  281           
15 16.09.19 330 (СЗ) 10 км  в посл. час гроза  10/4 600 м кучево-дожд., средняя 
[Cb cap|Ac und]
+11.4 +7.1 75 +12  1003.3  0.3  748  288    +20.3       
18 16.09.19 140 (ЮВ) 10 км  в посл. час ливневой дождь{гроза}  10/5 600 м кучево-дожд., средняя 
[Cb cap|Ac und]
+9 +8 93 +10  1002.7  -0.6  748  290           
21 16.09.19 270 (З) 10 км    10/3 600 м кучево-дожд., средняя 
[Cb cap|Ac cuf]
+8.4 +7.5 94 +9  1002.5  -0.2  747  291           
00 17.09.19 200 (Ю) 4000 м  дымка  10/10 300 м 
[St]
+7.3 +6.5 95 +7  1002.1  -0.4  747  292           
03 17.09.19 190 (Ю) 20000 м    10/10 300 м 
[St]
+7.8 +7 95 +8  1001.5  -0.6  747  291  +7       
06 17.09.19 200 (Ю) 20000 м    10/10 600 м кучево-дожд. 
[Cb cap]
+9.7 +7.3 85 +10  1000.9  -0.6  746  289           
09 17.09.19 210 (ЮЗ) 20000 м  {ливн. осадки}  10/10 600 м кучево-дожд. 
[Cb cap]
+11.1 +7.6 79 +11  1000.6  -0.2  746  288           
12 17.09.19 210 (ЮЗ) 20000 м  {ливн. осадки}  10/10 600 м кучево-дожд. 
[Cb cap]
+11.9 +8.1 78 +12  1001.4  0.8  747  287           
15 17.09.19 210 (ЮЗ) 10 км  в посл. час ливневой дождь  10/10 300 м 
[Frnb]
+10.7 +8.8 88 +11  1002.2  0.7  747  288    +11.9     
18 17.09.19 220 (ЮЗ) 10 км  {ливн. осадки}  3/0 средняя 
[Ac trans]
+8.9 +7.5 91 +9  1002.9  0.7  748  290           
21 17.09.19 210 (ЮЗ) 10 км    6/0 средняя, верхняя 
[Ac trans|Ci sp]
+7.9 +6.7 92 +8  1003.6  0.6  748  292           
00 18.09.19 120 (ЮВ) 10 км    6/0 средняя, верхняя 
[Ac trans|Ci sp]
+4.5 +3.6 94 +4  1003.8  0.2  748  296           
03 18.09.19 140 (ЮВ) 20000 м    8/0 верхняя 
[Ci fib]
+7.9 +6.9 93 +7  1002.9  -0.8  748  292  +4        влажная 
06 18.09.19 170 (Ю) 20000 м    10/0 верхняя 
[Cs]
+13.6 +7.8 68 +14  1002.3  -0.5  747  286           
09 18.09.19 210 (ЮЗ) 20000 м    10/3 600 м средняя, верхняя 
[Sc|Ac trans|Ci sp]
+15.3 +7.6 60 +15  1002.2  -0.1  747  284           
Время (UTC), дата Ветер
(°,м/с) 
Видим.   Явления Облачность Т
(°С)
Тd
(°С)
f(%) Тe
(°С)
Pmin
(гПа)
dP
(гПа)
Po
(мм)
O2
(г/м3)
Тmin Tmax R s Состояние
почвы

Для получения пояснительной информации подведите курсор к названию столбца.

ПОГОДА в Тобольске - архив

Всё, что Вы хотите узнать о погоде в Тобольске - удобно и подробно!

Выберите нужную дату (начиная с 1 января 2018* года) и нажмите кнопку "Найти".
Будут отображены архивные сводки погоды по пункту Тобольск, начиная с указанной даты.


Отображать данные в формате CSV (для использования в таблицах Excel)


Внимание! Наш архив погоды предназначен исключительно для личного некоммерческого использования в познавательных целях. Если Вам необходимы официальные справки о состоянии погоды (для производственных, юридических, коммерческих и т.п. целей), обращайтесь в органы Росгидромета.

*Примечание: данная дата относится к архиву по метеостанциям СССР (Россия, СНГ, Балтия).
Архив по метеостанциям Зарубежной Европы и Азии (кроме Китая) хранится 10 дней, по другим регионам земного шара (Китай, Африка, Америка, Австралия, Океания) - 1 день.

Тобольск - район местоположения метеостанции


Название, широта, долгота, высота метеостанции:
Тобольск 58.2°ш. 68.2°д. 50 м над ур. моря [Российская Федерация]

Дополнительная информация

В oтличие oт бoльшинства пoгoдных сайтoв мы публикуем пoдрoбную метеoинфoрмацию в детальнoм прoфессиoнальнoм фoрмате.

Характеристики температуры и влажнoсти вoздуха измеряются на высoте 2 м в тени вдали oт зданий и деревьев.
Скoрoсть ветра измеряется на высoте 10 м (на урoвне рoста челoвека скoрoсть ветра ниже в 1.5-2 раза). Если метеoстанция нахoдится в гoрoде или в лесу, тo скoрoсть ветра занижена на 2-4 м/с пo сравнению с oткрытым местoм. Скoрoсть ветра над акватoриями крупных рек и oзёр, а также на вершинах хoлмoв на 2-5 м/с выше, чем в oбычных услoвиях.
Атмoсфернoе давление в разных тoчках местнoсти мoжет значительнo oтличаться oт давления на метеoстанции, в зависимoсти oт услoвий рельефа (при пoдъёме на 10 м давление пoнижается примернo на 1 мм рт.ст.).